Location: Pine Mountain Observatory
(43.7910°N, 120.9377°W)
Time: 09:59:39
(UTC-07:00)

APEX - Visible Passes

Search period start: 30 August 2016 00:00
Search period end: 09 September 2016 00:00
Orbit: 332 x 1231 km, 69.9° (Epoch: 30 August)

Date Brightness Start Highest point End Pass type
(mag) Time Alt. Az. Time Alt. Az. Time Alt. Az.
30 Aug 5.1 00:10:15 10° NNW 00:17:03 66° N 00:17:03 66° N visible
30 Aug 6.6 01:54:28 10° NW 01:57:35 20° WNW 01:57:35 20° WNW visible
30 Aug 6.7 21:54:51 10° N 22:00:07 19° NE 22:03:53 14° ENE visible
30 Aug 5.2 23:37:05 10° NNW 23:44:24 59° NE 23:44:24 59° NE visible
31 Aug 6.3 01:20:46 10° NW 01:24:55 27° WNW 01:24:55 27° WNW visible
31 Aug 6.8 21:21:57 10° N 21:26:19 16° NNE 21:30:38 10° ENE visible
31 Aug 5.4 23:03:56 10° NNW 23:11:29 47° NE 23:11:46 46° ENE visible
01 Sep 5.9 00:47:14 10° NW 00:52:18 36° WNW 00:52:18 36° WNW visible
01 Sep 6.9 20:49:10 10° N 20:52:28 13° NNE 20:55:44 10° NE visible
01 Sep 5.7 22:30:50 10° NNW 22:37:59 37° NE 22:39:09 35° ENE visible
02 Sep 5.5 00:13:49 10° NNW 00:19:42 49° WNW 00:19:42 49° WNW visible
02 Sep 7.0 20:16:40 10° N 20:18:31 11° NNE 20:20:21 10° NE visible
02 Sep 6.0 21:57:45 10° NNW 22:04:24 29° NE 22:06:35 25° ENE visible
02 Sep 5.1 23:40:28 10° NNW 23:47:06 65° NW 23:47:06 65° NW visible
03 Sep 6.9 01:25:41 10° WNW 01:27:38 14° WNW 01:27:38 14° WNW visible
03 Sep 6.3 21:24:41 10° N 21:30:43 23° NE 21:34:01 18° ENE visible
03 Sep 4.9 23:07:11 10° NNW 23:14:32 75° NNE 23:14:32 75° NNE visible
04 Sep 6.6 00:51:31 10° NW 00:55:04 20° WNW 00:55:04 20° WNW visible
04 Sep 6.6 20:51:40 10° N 20:56:57 19° NE 21:01:28 12° ENE visible
04 Sep 4.9 22:33:57 10° NNW 22:41:42 61° ENE 22:42:00 61° ENE visible
05 Sep 6.2 00:17:42 10° NW 00:22:32 29° WNW 00:22:32 29° WNW visible
05 Sep 6.7 20:18:42 10° N 20:23:06 16° NNE 20:27:22 10° ENE visible
05 Sep 5.2 22:00:44 10° NNW 22:08:14 47° NE 22:09:28 44° E visible
05 Sep 5.7 23:44:04 10° NW 23:50:00 40° W 23:50:00 40° W visible
06 Sep 5.6 21:27:33 10° NNW 21:34:41 37° NE 21:36:58 30° E visible
06 Sep 5.2 23:10:34 10° NNW 23:17:30 56° W 23:17:30 56° W visible
07 Sep 6.0 20:54:24 10° NNW 21:01:01 29° NE 21:04:29 20° E visible
07 Sep 4.7 22:37:09 10° NNW 22:44:54 78° WSW 22:45:01 77° WSW visible
08 Sep 6.9 00:22:35 10° WNW 00:25:34 15° W 00:25:34 15° W visible
08 Sep 6.2 20:21:16 10° N 20:27:16 23° NE 20:32:01 13° E visible
08 Sep 4.6 22:03:48 10° NNW 22:11:36 81° ENE 22:12:34 68° SE visible
08 Sep 6.5 23:48:14 10° NW 23:53:06 21° W 23:53:06 21° W visible
